This is the latest recevied weather packets stored in our database for station/object WE1C. If no packets are shown the sender has not sent any weather packets the latest 1 day(s).
| Time | Temp. | Humidity | Pressure | Rain* | Wind** | Luminosity | Snow |
|---|---|---|---|---|---|---|---|
| 1778067857 | 16.11° C | 79% | 1038.8 hPa | 0 mm | - | 169 W/m² | - |
| 1778067556 | 16.11° C | 79% | 1038.9 hPa | 0 mm | - | 220 W/m² | - |
| 1778067253 | 15.56° C | 80% | 1038.8 hPa | 0 mm | - | 223 W/m² | - |
| 1778065739 | 15° C | 81% | 1039.3 hPa | 0 mm | - | 48 W/m² | - |
| 1778065133 | 15° C | 81% | 1039.2 hPa | 0 mm | - | 70 W/m² | - |
| 1778062407 | 13.89° C | 83% | 1038.9 hPa | 0 mm | - | 25 W/m² | - |
| 1778061804 | 13.89° C | 83% | 1039 hPa | 0 mm | - | 11 W/m² | - |
| 1778061502 | 13.89° C | 83% | 1039.1 hPa | 0 mm | - | 10 W/m² | - |
| 1778061198 | 13.89° C | 83% | 1039.1 hPa | 0 mm | - | 8 W/m² | - |
| 1778060594 | 14.44° C | 82% | 1038.5 hPa | 0 mm | - | 3 W/m² | - |
| 1778060292 | 14.44° C | 82% | 1038.8 hPa | 0 mm | - | 1 W/m² | - |
| 1778059687 | 13.89° C | 82% | 1038.7 hPa | 0 mm | - | 0 W/m² | - |
| 1778059384 | 13.89° C | 82% | 1038.9 hPa | 0 mm | - | 0 W/m² | - |
| 1778059081 | 14.44° C | 82% | 1038.5 hPa | 0 mm | - | 0 W/m² | - |
| 1778058173 | 14.44° C | 81% | 1038.9 hPa | 0 mm | - | 0 W/m² | - |
| 1778057870 | 14.44° C | 81% | 1039 hPa | 0 mm | - | 0 W/m² | - |
| 1778057263 | 14.44° C | 80% | 1039 hPa | 0 mm | - | 0 W/m² | - |
| 1778056959 | 14.44° C | 80% | 1038.9 hPa | 0 mm | - | 0 W/m² | - |
| 1778056656 | 14.44° C | 80% | 1039.1 hPa | 0 mm | - | 0 W/m² | - |
| 1778056354 | 14.44° C | 80% | 1039.1 hPa | 0 mm | - | 0 W/m² | - |
| 1778054839 | 15° C | 79% | 1039.1 hPa | 0 mm | - | 0 W/m² | - |
| 1778054234 | 15° C | 79% | 1038.9 hPa | 0 mm | - | 0 W/m² | - |
| 1778053930 | 15° C | 79% | 1038.7 hPa | 0 mm | - | 0 W/m² | - |
| 1778053325 | 15° C | 78% | 1038.9 hPa | 0 mm | - | 0 W/m² | - |
| 1778052720 | 15° C | 78% | 1038.9 hPa | 0 mm | - | 0 W/m² | - |
* Rain latest hour (hover to see other rain measurements)
** Current wind speed in m/s (hover to see current wind gust speed)